TimeCDT,TemperatureF,Dew PointF,Humidity,Sea Level PressureIn,VisibilityMPH,Wind Direction,Wind SpeedMPH,Gust SpeedMPH,PrecipitationIn,Events,Conditions,WindDirDegrees,DateUTC
12:31 AM,71.6,66.2,83,29.99,10.0,South,13.8,-,N/A,,Clear,170,2013-07-30 05:31:00
12:53 AM,70.0,66.9,90,29.91,10.0,SSE,15.0,-,N/A,,Mostly Cloudy,150,2013-07-30 05:53:00
1:53 AM,70.0,66.0,87,29.90,10.0,South,5.8,-,N/A,,Clear,180,2013-07-30 06:53:00
2:53 AM,69.1,66.9,93,29.90,10.0,West,3.5,-,N/A,,Clear,280,2013-07-30 07:53:00
3:53 AM,68.0,66.0,93,29.94,10.0,ENE,6.9,-,N/A,,Clear,70,2013-07-30 08:53:00
4:53 AM,68.0,66.9,96,29.93,10.0,East,3.5,-,N/A,,Clear,100,2013-07-30 09:53:00
5:53 AM,69.1,66.0,90,29.94,10.0,Calm,Calm,-,N/A,,Clear,0,2013-07-30 10:53:00
6:53 AM,69.1,66.9,93,29.96,10.0,NW,3.5,-,N/A,,Partly Cloudy,320,2013-07-30 11:53:00
7:53 AM,71.1,68.0,90,29.97,10.0,NNW,6.9,-,N/A,,Scattered Clouds,340,2013-07-30 12:53:00
8:04 AM,71.6,69.8,94,30.07,10.0,NNW,6.9,-,N/A,,Mostly Cloudy,330,2013-07-30 13:04:00
8:30 AM,73.4,69.8,88,30.07,10.0,North,9.2,-,N/A,,Scattered Clouds,350,2013-07-30 13:30:00
8:44 AM,73.4,69.8,88,30.08,10.0,NNW,8.1,-,N/A,,Mostly Cloudy,340,2013-07-30 13:44:00
8:53 AM,73.9,70.0,87,30.00,10.0,NW,8.1,-,N/A,,Mostly Cloudy,320,2013-07-30 13:53:00
9:53 AM,75.0,70.0,84,30.04,10.0,North,10.4,-,N/A,,Overcast,350,2013-07-30 14:53:00
10:53 AM,75.0,70.0,84,30.05,10.0,NNW,11.5,-,N/A,,Overcast,340,2013-07-30 15:53:00
11:53 AM,75.0,70.0,84,30.06,10.0,North,11.5,-,N/A,,Overcast,360,2013-07-30 16:53:00
12:32 PM,75.2,69.8,83,30.12,10.0,North,8.1,-,N/A,,Overcast,10,2013-07-30 17:32:00
12:53 PM,77.0,69.1,76,30.05,10.0,North,11.5,-,N/A,,Overcast,10,2013-07-30 17:53:00
1:53 PM,81.0,70.0,69,30.03,10.0,NNE,10.4,-,N/A,,Mostly Cloudy,30,2013-07-30 18:53:00
2:53 PM,82.0,69.1,65,30.03,10.0,NNE,10.4,-,N/A,,Mostly Cloudy,20,2013-07-30 19:53:00
3:53 PM,84.0,70.0,63,30.02,10.0,NE,10.4,-,N/A,,Scattered Clouds,40,2013-07-30 20:53:00
4:53 PM,82.9,69.1,63,30.01,10.0,Calm,Calm,-,N/A,,Scattered Clouds,0,2013-07-30 21:53:00
5:53 PM,84.0,68.0,58,30.01,10.0,North,5.8,-,N/A,,Partly Cloudy,350,2013-07-30 22:53:00
6:53 PM,84.0,68.0,58,30.00,10.0,Variable,4.6,-,N/A,,Mostly Cloudy,0,2013-07-30 23:53:00
7:53 PM,81.0,69.1,67,30.01,10.0,ENE,4.6,-,N/A,,Clear,70,2013-07-31 00:53:00
8:53 PM,75.9,70.0,82,30.01,10.0,East,4.6,-,N/A,,Clear,100,2013-07-31 01:53:00
9:53 PM,73.0,70.0,90,30.04,10.0,ESE,4.6,-,N/A,,Clear,120,2013-07-31 02:53:00
10:53 PM,72.0,70.0,93,30.05,10.0,SSE,5.8,-,N/A,,Clear,150,2013-07-31 03:53:00
11:53 PM,71.1,69.1,93,30.06,10.0,Calm,Calm,-,N/A,,Clear,0,2013-07-31 04:53:00